Orr, MN

2:48 PM CDT on May 26, 2018 (GMT -0500)
Orr Regional

Weather History for KORB - April, 2013

Change the Weather History Date:

Sunday, April 7, 2013

  Actual Average Record
Temperature  
Mean Temperature 32 °F -  
Max Temperature 37 °F 44 °F 62 °F (2005)
Min Temperature 28 °F 23 °F 5 °F (1997)
Degree Days  
Heating Degree Days 32    
Moisture  
Dew Point 27 °F    
Average Humidity 81    
Maximum Humidity 100    
Minimum Humidity 56    
Precipitation  
Precipitation 0.13 in - - ()
Sea Level Pressure  
Sea Level Pressure 29.80 in    
Wind  
Wind Speed 3 mph (SW)    
Max Wind Speed 8 mph    
Max Gust Speed -    
Visibility 9 miles    
Events Snow    
Averages and records for this station are not official NWS values.
T = Trace of Precipitation, MM = Missing Value Source: NWS Daily Summary

Daily Weather History Graph

Daily Weather History Graph

Search for Another Location

Airport or City:

Astronomy

Apr. 07, 2013 Rise Set
Actual Time 6:37 AM CDT 7:50 PM CDT
Civil Twilight 6:05 AM CDT 8:22 PM CDT
Nautical Twilight 5:26 AM CDT 9:01 PM CDT
Astronomical Twilight 4:45 AM CDT 9:42 PM CDT
Moon 5:06 AM CDT (4/7) 5:14 PM CDT (4/7)
Length of Visible Light 14h 17m
Length of Day
13h 13m
Waning Crescent, 8% of the Moon is Illuminated
Apr 7
Waning Crescent
Apr 10
New
Apr 18
First Quarter
Apr 25
Full
May 2
Last Quarter

Hourly Weather History & Observations

Time (CDT) Temp. Windchill Dew Point Humidity Pressure Visibility Wind Dir Wind Speed Gust Speed Precip Events Conditions
12:13 AM 32.0 °F - 28.4 °F 87% 29.69 in 10.0 mi Calm Calm - N/A   Overcast
12:33 AM 30.2 °F 26.7 °F 28.4 °F 93% 29.69 in 10.0 mi NW 3.5 mph - N/A   Overcast
12:53 AM 30.2 °F 24.3 °F 28.4 °F 93% 29.70 in 10.0 mi NW 5.8 mph - N/A   Overcast
1:13 AM 30.2 °F 26.7 °F 28.4 °F 93% 29.71 in 10.0 mi NW 3.5 mph - N/A   Overcast
1:33 AM 30.2 °F 24.3 °F 28.4 °F 93% 29.71 in 10.0 mi NW 5.8 mph - N/A   Overcast
1:53 AM 30.2 °F 24.3 °F 28.4 °F 93% 29.72 in 10.0 mi NW 5.8 mph - N/A   Overcast
2:13 AM 30.2 °F 24.3 °F 28.4 °F 93% 29.73 in 10.0 mi NW 5.8 mph - N/A   Overcast
2:33 AM 30.2 °F 26.7 °F 28.4 °F 93% 29.73 in 10.0 mi NW 3.5 mph - N/A   Overcast
2:53 AM 30.2 °F 26.7 °F 28.4 °F 93% 29.73 in 10.0 mi NW 3.5 mph - N/A   Overcast
3:13 AM 30.2 °F 26.7 °F 28.4 °F 93% 29.73 in 10.0 mi NW 3.5 mph - N/A   Overcast
3:33 AM 30.2 °F 26.7 °F 28.4 °F 93% 29.72 in 10.0 mi NW 3.5 mph - N/A   Overcast
3:53 AM 30.2 °F 26.7 °F 28.4 °F 93% 29.73 in 10.0 mi NW 3.5 mph - N/A   Overcast
4:13 AM 30.2 °F 26.7 °F 28.4 °F 93% 29.73 in 10.0 mi NW 3.5 mph - N/A   Overcast
4:33 AM 30.2 °F 26.7 °F 28.4 °F 93% 29.74 in 10.0 mi NW 3.5 mph - N/A   Overcast
4:53 AM 30.2 °F 26.7 °F 26.6 °F 86% 29.74 in 10.0 mi NW 3.5 mph - N/A   Overcast
5:13 AM 30.2 °F 25.4 °F 26.6 °F 86% 29.76 in 10.0 mi NW 4.6 mph - N/A   Overcast
5:33 AM 30.2 °F 24.3 °F 26.6 °F 86% 29.77 in 10.0 mi NW 5.8 mph - N/A   Overcast
5:53 AM 30.2 °F 26.7 °F 26.6 °F 86% 29.77 in 10.0 mi NW 3.5 mph - N/A   Overcast
6:14 AM 30.2 °F - 26.6 °F 86% 29.78 in 10.0 mi Calm Calm - N/A   Overcast
6:34 AM 28.4 °F - 26.6 °F 93% 29.79 in 10.0 mi Calm Calm - N/A   Overcast
6:53 AM 28.4 °F - 26.6 °F 93% 29.78 in 10.0 mi Calm Calm - N/A   Overcast
7:13 AM 28.4 °F - 26.6 °F 93% 29.79 in 10.0 mi Calm Calm - N/A   Overcast
7:33 AM 28.4 °F - 26.6 °F 93% 29.79 in 10.0 mi Calm Calm - N/A   Overcast
7:53 AM 28.4 °F - 26.6 °F 93% 29.81 in 10.0 mi Calm Calm - N/A   Scattered Clouds
8:13 AM 30.2 °F - 26.6 °F 86% 29.81 in 10.0 mi Calm Calm - N/A   Mostly Cloudy
8:33 AM 30.2 °F 26.7 °F 26.6 °F 86% 29.82 in 10.0 mi WNW 3.5 mph - N/A   Overcast
8:53 AM 30.2 °F 25.4 °F 26.6 °F 86% 29.83 in 10.0 mi WNW 4.6 mph - N/A   Overcast
9:14 AM 30.2 °F - 26.6 °F 86% 29.83 in 10.0 mi Calm Calm - N/A   Overcast
9:33 AM 32.0 °F 28.7 °F 26.6 °F 80% 29.83 in 10.0 mi WNW 3.5 mph - N/A   Overcast
9:53 AM 32.0 °F - 26.6 °F 80% 29.83 in 10.0 mi Calm Calm - N/A   Overcast
10:13 AM 33.8 °F - 26.6 °F 75% 29.83 in 10.0 mi Calm Calm - N/A   Overcast
10:33 AM 33.8 °F - 26.6 °F 75% 29.83 in 10.0 mi Calm Calm - N/A   Overcast
10:53 AM 35.6 °F - 26.6 °F 70% 29.84 in 10.0 mi Calm Calm - N/A   Overcast
11:13 AM 35.6 °F - 26.6 °F 70% 29.84 in 10.0 mi Calm Calm - N/A   Overcast
11:33 AM 35.6 °F - 26.6 °F 70% 29.84 in 10.0 mi Calm Calm - N/A   Overcast
11:53 AM 35.6 °F - 24.8 °F 65% 29.84 in 10.0 mi Calm Calm - N/A   Overcast
12:13 PM 37.4 °F - 24.8 °F 60% 29.83 in 10.0 mi Calm Calm - N/A   Mostly Cloudy
12:33 PM 37.4 °F - 24.8 °F 60% 29.84 in 10.0 mi Calm Calm - N/A   Mostly Cloudy
12:53 PM 37.4 °F - 23.0 °F 56% 29.84 in 10.0 mi Calm Calm - N/A   Overcast
1:13 PM 37.4 °F 32.8 °F 24.8 °F 60% 29.84 in 10.0 mi SSE 5.8 mph - N/A   Overcast
1:33 PM 37.4 °F 34.9 °F 24.8 °F 60% 29.84 in 10.0 mi South 3.5 mph - N/A   Overcast
1:53 PM 37.4 °F 32.1 °F 24.8 °F 60% 29.84 in 10.0 mi South 6.9 mph - N/A   Overcast
2:13 PM 37.4 °F 32.8 °F 24.8 °F 60% 29.84 in 10.0 mi South 5.8 mph - N/A   Overcast
2:33 PM 37.4 °F 33.8 °F 24.8 °F 60% 29.83 in 10.0 mi South 4.6 mph - N/A   Overcast
2:53 PM 37.4 °F 34.9 °F 26.6 °F 65% 29.82 in 10.0 mi SSE 3.5 mph - N/A   Overcast
3:13 PM 37.4 °F 33.8 °F 26.6 °F 65% 29.82 in 10.0 mi SSE 4.6 mph - N/A   Overcast
3:33 PM 37.4 °F 33.8 °F 26.6 °F 65% 29.81 in 10.0 mi SSE 4.6 mph - N/A   Overcast
3:53 PM 37.4 °F 31.4 °F 26.6 °F 65% 29.81 in 10.0 mi South 8.1 mph - N/A   Overcast
4:14 PM 37.4 °F 32.1 °F 26.6 °F 65% 29.80 in 10.0 mi South 6.9 mph - N/A   Overcast
4:33 PM 37.4 °F 31.4 °F 26.6 °F 65% 29.80 in 10.0 mi SSE 8.1 mph - N/A   Overcast
4:53 PM 37.4 °F 32.1 °F 26.6 °F 65% 29.80 in 10.0 mi South 6.9 mph - N/A   Overcast
5:13 PM 37.4 °F 32.1 °F 26.6 °F 65% 29.80 in 10.0 mi SSE 6.9 mph - N/A   Overcast
5:34 PM 37.4 °F 31.4 °F 26.6 °F 65% 29.80 in 10.0 mi South 8.1 mph - N/A   Overcast
5:53 PM 37.4 °F 31.4 °F 26.6 °F 65% 29.80 in 10.0 mi SSE 8.1 mph - N/A   Overcast
6:13 PM 37.4 °F 31.4 °F 26.6 °F 65% 29.80 in 10.0 mi SSE 8.1 mph - N/A   Overcast
6:33 PM 35.6 °F 30.7 °F 26.6 °F 70% 29.80 in 10.0 mi SSE 5.8 mph - N/A   Overcast
6:53 PM 35.6 °F 29.9 °F 26.6 °F 70% 29.80 in 10.0 mi SSE 6.9 mph - N/A   Overcast
7:13 PM 35.6 °F 31.7 °F 26.6 °F 70% 29.81 in 10.0 mi South 4.6 mph - N/A   Overcast
7:33 PM 35.6 °F 29.9 °F 26.6 °F 70% 29.81 in 10.0 mi SSE 6.9 mph - N/A Snow Light Snow
7:53 PM 33.8 °F 29.6 °F 28.4 °F 81% 29.82 in 3.0 mi South 4.6 mph - N/A Snow Light Snow
8:13 PM 33.8 °F - 28.4 °F 81% 29.83 in 2.5 mi Calm Calm - N/A Snow Snow
8:33 PM 32.0 °F - 30.2 °F 93% 29.84 in 1.2 mi Calm Calm - 0.02 in Snow Snow
8:53 PM 32.0 °F - 30.2 °F 93% 29.84 in 1.2 mi Calm Calm - 0.04 in Snow Snow
9:13 PM 32.0 °F - 30.2 °F 93% 29.84 in 1.5 mi Calm Calm - 0.02 in Snow Snow
9:33 PM 32.0 °F - 30.2 °F 93% 29.84 in 1.5 mi Calm Calm - 0.05 in Snow Snow
9:53 PM 32.0 °F 28.7 °F 30.2 °F 93% 29.84 in 1.5 mi SSE 3.5 mph - 0.07 in Snow Heavy Snow
10:13 PM 32.0 °F - 30.2 °F 93% 29.84 in 1.2 mi Calm Calm - 0.01 in Snow Snow
10:34 PM 32.0 °F - 30.2 °F 93% 29.83 in 1.8 mi Calm Calm - 0.01 in Snow Snow
10:54 PM 32.0 °F - 30.2 °F 93% 29.83 in 2.0 mi Calm Calm - 0.02 in   Mostly Cloudy
11:13 PM 30.2 °F - 30.2 °F 100% 29.82 in 4.0 mi Calm Calm - N/A Snow Light Snow
11:33 PM 30.2 °F - 30.2 °F 100% 29.81 in 4.0 mi Calm Calm - N/A Snow Light Snow
11:53 PM 30.2 °F - 30.2 °F 100% 29.81 in 5.0 mi Calm Calm - N/A Snow Light Snow